Flag for Argentina Weather past 2 weeks in Salta, Salta, Argentina

Now
50 °F

Clear.


Feels Like: 49 °F
Forecast: 45 / 87 °F
Wind: 3 mph from West

Location: Salta Aerodrome

Current Time: Aug 29, 2015 at 4:44:46 AM

Latest Report: Aug 29, 2015 at 4:00 AM


Visibility: 10 mi

Pressure: 30.01 "Hg (26.01 "Hg at 1184m altitude)

Humidity: 82%

Dew point: 45 °F

Location of SaltaLocation

Historic Weather in Salta — Graph

°F

Salta temperature yesterday

Maximum temperature yesterday: 82 °F (at 4:00 PM)
Minimum temperature yesterday: 50 °F (at 7:00 AM)
Average temperature yesterday: 66 °F

Past Weeks' High & Low Weather Summary

 TemperatureHumidityPressure
High90 °F (Aug 22, 4:00 PM)100% (Aug 14, 7:00 AM)30.24 "Hg (Aug 14, 7:00 AM)
Low34 °F (Aug 18, 6:00 AM)8% (Aug 22, 5:00 PM)29.74 "Hg (Aug 22, 3:00 PM)
Average56 °F61%30.05 "Hg
* Reported Aug 14 3:00 AM — Aug 29 3:00 AM, Salta, Weather by CustomWeather, © 2015

Note: Actual official high and low records may vary slightly from our data, if they occured in-between our weather recording intervals... More about our weather records

Advertising

Salta weather history for previous 24 hours

 ConditionsComfort  
Time TempWeatherWind HumidityBarometerVisibility
3:00 AM
Sat, Aug 29
52 °FClear.5 mph77%30.04 "Hg10 mi
2:00 AM52 °FClear.No wind77%30.04 "Hg10 mi
1:00 AM52 °FClear.No wind77%30.07 "Hg10 mi
12:00 AM55 °FClear.No wind67%30.07 "Hg10 mi
11:00 PM
Fri, Aug 28
57 °FClear.2 mph63%30.07 "Hg10 mi
10:00 PM63 °FClear.2 mph52%30.07 "Hg10 mi
9:00 PM66 °FClear.6 mph43%30.07 "Hg10 mi
8:00 PM68 °FClear.5 mph38%30.04 "Hg10 mi
7:00 PM75 °FClear.14 mph34%30.01 "Hg10 mi
6:00 PM79 °FSunny.16 mph28%30.01 "Hg10 mi
5:00 PM81 °FSunny.7 mph28%30.01 "Hg10 mi
4:00 PM82 °FSunny.10 mph26%30.01 "Hg10 mi
3:00 PM81 °FSunny.5 mph28%30.04 "Hg10 mi
2:00 PM79 °FSunny.9 mph30%30.09 "Hg10 mi
1:00 PM77 °FSunny.6 mph34%30.12 "Hg10 mi
12:00 PM73 °FSunny.6 mph41%30.15 "Hg10 mi
11:00 AM68 °FSunny.5 mph49%30.18 "Hg10 mi
10:00 AM64 °FSunny.5 mph56%30.15 "Hg10 mi
9:00 AM57 °FSunny.No wind72%30.15 "Hg10 mi
8:00 AM52 °FSunny.7 mph77%30.12 "Hg10 mi
7:00 AM50 °FSunny.6 mph82%30.09 "Hg10 mi
6:00 AM52 °FClear.5 mph82%30.09 "Hg10 mi
5:00 AM57 °FClear.No wind72%30.09 "Hg10 mi
4:00 AM57 °FClear.3 mph77%30.12 "Hg10 mi
Weather by CustomWeather, © 2015

See weather overviewHow to use our weather pages